This is the latest recevied weather packets stored in our database for station/object IW1RCO-13. If no packets are shown the sender has not sent any weather packets the latest 10 day(s).
| Time | Temp. | Humidity | Pressure | Rain* | Wind** | Luminosity | Snow |
|---|---|---|---|---|---|---|---|
| 1788646470 | 20° C | 83% | 1020 hPa | - | - | - | - |
| 1788646173 | 20° C | 82% | 1020 hPa | - | - | - | - |
| 1788645873 | 20.56° C | 82% | 1020.2 hPa | - | - | - | - |
| 1788645569 | 20.56° C | 81% | 1019.8 hPa | - | - | - | - |
| 1788645273 | 20.56° C | 82% | 1019.6 hPa | - | - | - | - |
| 1788644969 | 20.56° C | 80% | 1019.8 hPa | - | - | - | - |
| 1788644672 | 20.56° C | 80% | 1020.2 hPa | - | - | - | - |
| 1788644369 | 20.56° C | 81% | 1019.8 hPa | - | - | - | - |
| 1788644072 | 20.56° C | 81% | 1019.8 hPa | - | - | - | - |
| 1788642871 | 20° C | 85% | 1019.8 hPa | - | - | - | - |
| 1788642568 | 20° C | 85% | 1020.2 hPa | - | - | - | - |
| 1788642271 | 20° C | 86% | 1019.6 hPa | - | - | - | - |
| 1788641968 | 20.56° C | 84% | 1019.4 hPa | - | - | - | - |
| 1788641671 | 20° C | 86% | 1019.3 hPa | - | - | - | - |
| 1788641367 | 20.56° C | 85% | 1019.9 hPa | - | - | - | - |
| 1788641071 | 20.56° C | 84% | 1019.8 hPa | - | - | - | - |
| 1788640767 | 20.56° C | 86% | 1020 hPa | - | - | - | - |
| 1788640470 | 20.56° C | 88% | 1019.2 hPa | - | - | - | - |
| 1788640167 | 20.56° C | 87% | 1019.5 hPa | - | - | - | - |
| 1788639870 | 20.56° C | 87% | 1019.5 hPa | - | - | - | - |
| 1788639573 | 21.11° C | 87% | 1019.3 hPa | - | - | - | - |
| 1788639270 | 20.56° C | 88% | 1019.6 hPa | - | - | - | - |
| 1788638973 | 20.56° C | 88% | 1019.2 hPa | - | - | - | - |
| 1788638670 | 20.56° C | 88% | 1019.9 hPa | - | - | - | - |
| 1788638373 | 20.56° C | 88% | 1019.6 hPa | - | - | - | - |
* Rain since midnight (hover to see other rain measurements)
** Current wind speed in m/s (hover to see current wind gust speed)